Regional Weather Roundup
Issued by NWS

Home | Current Version | Previous Version | Text Only | Print | Product List | Glossary Off
Versions: 1 2 3 4 5 6 7 8 9 10 11 12 13 14 15 16 17 18 19 20 21 22 23 24 25 26 27 28 29 30 31 32 33 34 35 36 37 38 39 40 41 42 43 44 45 46 47 48 49 50

458
ASUS43 KOAX 230202
RWRNE

WEATHER ROUNDUP FOR NEBRASKA
NATIONAL WEATHER SERVICE OMAHA NE
900 PM CDT SAT APR 22 2017

NOTES: SATELLITE DATA IS BEING USED TO AUGMENT CLOUD COVER ABOVE
       12000 FEET.
       "FAIR" INDICATES FEW OR NO CLOUDS BELOW 12,000 FEET WITH NO
       SIGNIFICANT WEATHER AND/OR OBSTRUCTIONS TO VISIBILITY.

  * THESE STATIONS DO NOT REPORT WEATHER SUCH AS RAIN...SNOW OR FOG.

NEZ001>004-019>022-054>056-230300-
NEBRASKA PANHANDLE

CITY           SKY/WX    TMP DP  RH WIND       PRES   REMARKS
SCOTTSBLUFF    CLEAR     54  29  38 S7        30.15F
ALLIANCE       CLEAR     45  29  53 S10       30.15F
CHADRON        CLEAR     56  31  38 S12       30.09F
KIMBALL        CLEAR     45  35  68 S7        30.20S
SIDNEY         CLEAR     43  35  73 S9        30.21S
$$

NEZ057>060-069>072-079>082-230300-
SOUTHWEST NEBRASKA

CITY           SKY/WX    TMP DP  RH WIND       PRES   REMARKS
NORTH PLATTE   CLEAR     50  30  46 NE3       30.21R
IMPERIAL       CLEAR     50  34  54 SW5       30.21F
LEXINGTON      CLEAR     56  28  33 E5        30.21S
MCCOOK         CLEAR     56  28  34 SE3       30.21S
OGALLALA       CLEAR     55  26  33 S3        30.19F
$$

NEZ005>010-023>029-035>040-094-230300-
NORTH CENTRAL NEBRASKA

CITY           SKY/WX    TMP DP  RH WIND       PRES   REMARKS
VALENTINE      CLEAR     56  26  31 S10       30.13F
AINSWORTH      CLEAR     50  34  54 S8        30.16F
BROKEN BOW     CLEAR     54  31  41 SE5       30.20R
O`NEILL        CLEAR     56  32  40 S6        30.19S
ORD            CLEAR     50  33  52 SW3       30.19R
THEDFORD       CLEAR     55  27  34 S9        30.19S
$$

NEZ041-046>049-061>064-073>077-083>087-230300-
SOUTH CENTRAL NEBRASKA

CITY           SKY/WX    TMP DP  RH WIND       PRES   REMARKS
GRAND ISLAND   CLEAR     53  29  39 CALM      30.21R
AURORA         CLEAR     55  27  35 NE6       30.20S
HASTINGS       CLEAR     55  27  34 E5        30.21S
HEBRON         CLEAR     52  31  44 CALM      30.20R
HOLDREGE       CLEAR     54  26  32 CALM      30.21S
KEARNEY *      CLEAR     55  25  30 NE3       30.21S
YORK           CLEAR     55  28  35 NE3       30.20S
$$

NEZ011>018-030>034-042>045-230300-
NORTHEAST NEBRASKA

CITY           SKY/WX    TMP DP  RH WIND       PRES   REMARKS
NORFOLK        CLEAR     48  35  60 SW3       30.19S
ALBION         CLEAR     51  34  52 CALM      30.20S
BLAIR          CLEAR     60  32  34 N6        30.19R
FREMONT        CLEAR     59  32  35 CALM      30.20R
TEKAMAH        CLEAR     56  41  57 NW3       30.18S
WAYNE          CLEAR     51  37  58 CALM      30.19R
$$

NEZ050>053-065>068-078-088>093-230300-
SOUTHEAST NEBRASKA

CITY           SKY/WX    TMP DP  RH WIND       PRES   REMARKS
LINCOLN        CLEAR     53  35  50 NE6       30.21R
OMAHA EPPLEY   PTCLDY    57  36  45 NE7       30.18R
BEATRICE       CLEAR     51  36  56 N5        30.19R
FALLS CITY     CLEAR     57  29  34 NE3       30.17R
NEBRASKA CITY  CLEAR     57  22  26 CALM      30.18R
PLATTSMOUTH    CLEAR     59  22  23 CALM      30.18S
$$

NEZ044-045-051>053-067-230300-
OMAHA AREA

CITY           SKY/WX    TMP DP  RH WIND       PRES   REMARKS
OMAHA EPPLEY   PTCLDY    57  36  45 NE7       30.18R
BLAIR          CLEAR     60  32  34 N6        30.19R
FREMONT        CLEAR     59  32  35 CALM      30.20R
MILLARD        CLEAR     58  35  43 CALM      30.18S
OFFUTT AFB     CLEAR     49  36  61 CALM      30.17S
PLATTSMOUTH    CLEAR     59  22  23 CALM      30.18S
WAHOO          FAIR      55  34  45 N3        30.19S
$$




USA.gov is the U.S. government's official web portal to all federal, state and local government web resources and services.